(240475) = 2005 GR204 = 2004 BD66

Discovered at Socorro on 2004-01-22 by LINEAR.

Orbit

Orbit type: Main Belt

Note: WebGL enabled browser required.

epoch2024-03-31.0
epoch JD2460400.5
perihelion date2020-05-10.44307
perihelion JD2458979.94307
argument of perihelion (°)169.34967
ascending node (°)80.61657
inclination (°)3.21025
eccentricity0.0122160
perihelion distance (AU)2.8280372
Tisserand w.r.t. Jupiter3.3
ΔV w.r.t. Earth (km/sec)10.5
semimajor axis (AU)2.8630117
mean anomaly (°)289.01994
mean daily motion (°/day)0.20345540
aphelion distance (AU)2.898
period (years)4.84
P-vector [x]-0.34228762
P-vector [y]-0.86612631
P-vector [z]-0.36423124
Q-vector [x]0.93796937
Q-vector [y]-0.29218277
Q-vector [z]-0.18666197
absolute magnitude16.59
phase slope0.15
uncertainty0
referenceMPEC 2024-F14
observations used248
oppositions16
arc length (days)7394
first opposition used2003
last opposition used2024
residual rms (arc-secs)0.83
perturbers coarse indicatorM-v
perturbers precise indicator003Ek
first observation date used2003-12-19.0
last observation date used2024-03-17.0
computer nameMPCLINUX
JD of orbit computation2456760.700224
perihelion JD uncertainty (days)1.8203E-03
argument of perihelion uncertainty (°)3.8399E-04
ascending node uncertainty (°)9.0948E-05
inclination uncertainty (°)5.7325E-06
eccentricity uncertainty 6.2238E-08
perihelion distance uncertainty (AU)1.7070E-07
Minimum Orbit Intersection Distances (in AU)
for orbit epoch: 2460400.5, reference: E2024-GH2
Mercury2.36259
Venus2.10218
Earth1.81313
Mars1.19693
Jupiter2.06927
Saturn6.14765
Uranus15.5816
Neptune26.9315

Observations

256 total observations over interval: 2003 12 19.51042 – 2024 03 17.458755
These data are available for download (format description).

Date (UT) J2000 RA J2000 Dec Magn Location Ref
2003 12 19.51042 08 24 16.20 +21 42 53.0 21.2 V 691 – Steward Observatory, Kitt Peak-Spacewatch MPS 135352
2003 12 19.52498 08 24 15.78 +21 42 55.9 21.5 V 691 – Steward Observatory, Kitt Peak-Spacewatch MPS 135352
2003 12 19.53880 08 24 15.35 +21 42 58.0 21.6 V 691 – Steward Observatory, Kitt Peak-Spacewatch MPS 135352
2003 12 21.292750 08 23 22.550 +21 48 25.93 21.01 V 645 – Apache Point-Sloan Digital Sky Survey MPS 137043
2003 12 21.296222 08 23 22.431 +21 48 26.59 21.92   645 – Apache Point-Sloan Digital Sky Survey MPS 137043
2004 01 16.26366 08 03 13.67 +23 22 32.1 20.7 V 691 – Steward Observatory, Kitt Peak-Spacewatch MPS 135352
2004 01 16.27171 08 03 13.20 +23 22 33.8 20.7 V 691 – Steward Observatory, Kitt Peak-Spacewatch MPS 135352
2004 01 16.27913 08 03 12.78 +23 22 35.5 20.5 V 691 – Steward Observatory, Kitt Peak-Spacewatch MPS 135352
2004 01 22.30169 07 57 32.55 +23 43 26.9 20.5   704 – Lincoln Laboratory ETS, New Mexico MPS 97943
2004 01 22.31448 07 57 31.88 +23 43 29.7 20.5   704 – Lincoln Laboratory ETS, New Mexico MPS 97943
2004 01 22.32749 07 57 31.14 +23 43 31.2 20.3   704 – Lincoln Laboratory ETS, New Mexico MPS 97943
2004 01 27.35942 07 52 51.39 +23 59 16.4 20.9 V 691 – Steward Observatory, Kitt Peak-Spacewatch MPS 97943
2004 01 27.38826 07 52 49.77 +23 59 21.3 20.9 V 691 – Steward Observatory, Kitt Peak-Spacewatch MPS 97943
2004 01 27.41948 07 52 48.02 +23 59 26.6 21.2 V 691 – Steward Observatory, Kitt Peak-Spacewatch MPS 97943
2005 04 10.38084 14 12 26.47 -09 14 11.9 20.5 R 695 – Kitt Peak MPS 133387
2005 04 10.45780 14 12 22.84 -09 13 54.6   695 – Kitt Peak MPS 133387
2005 04 11.32428 14 11 43.22 -09 10 40.1 20.1 R G96 – Mt. Lemmon Survey MPS 133387
2005 04 11.32987 14 11 42.91 -09 10 38.1 19.6 R G96 – Mt. Lemmon Survey MPS 133387
2005 04 11.33545 14 11 42.61 -09 10 36.6 19.9 R G96 – Mt. Lemmon Survey MPS 133387
2005 04 11.34104 14 11 42.38 -09 10 35.5 19.9 R G96 – Mt. Lemmon Survey MPS 133387
2007 10 18.33250 02 51 25.79 +12 59 18.4 20.6 V 691 – Steward Observatory, Kitt Peak-Spacewatch MPS 276481
2007 10 18.34782 02 51 25.13 +12 59 15.5 20.5 V 691 – Steward Observatory, Kitt Peak-Spacewatch MPS 276481
2007 10 18.36313 02 51 24.34 +12 59 14.6 20.3 V 691 – Steward Observatory, Kitt Peak-Spacewatch MPS 276481
2007 11 01.24764 02 40 01.45 +12 14 23.7 19.9 V G96 – Mt. Lemmon Survey MPS 276481
2007 11 01.25326 02 40 01.16 +12 14 22.7 19.9 V G96 – Mt. Lemmon Survey MPS 276481
2007 11 01.25879 02 40 00.87 +12 14 21.7 20.2 V G96 – Mt. Lemmon Survey MPS 276481
2007 11 01.26432 02 40 00.55 +12 14 20.3 19.9 V G96 – Mt. Lemmon Survey MPS 276481
2009 01 16.24836 09 14 58.70 +19 41 27.7 20.4 V 691 – Steward Observatory, Kitt Peak-Spacewatch MPS 272448
2009 01 16.26673 09 14 57.87 +19 41 32.8 20.7 V 691 – Steward Observatory, Kitt Peak-Spacewatch MPS 272448
2009 01 16.28486 09 14 56.99 +19 41 38.2 20.7 V 691 – Steward Observatory, Kitt Peak-Spacewatch MPS 272448
2009 01 31.18240 09 02 24.24 +20 50 33.0 19.9 V 691 – Steward Observatory, Kitt Peak-Spacewatch MPS 272448
2009 01 31.20075 09 02 23.26 +20 50 37.9 20.2 V 691 – Steward Observatory, Kitt Peak-Spacewatch MPS 272448
2009 01 31.21885 09 02 22.25 +20 50 42.9 20.1 V 691 – Steward Observatory, Kitt Peak-Spacewatch MPS 272448
2009 02 04.17911 08 58 48.44 +21 07 57.3   691 – Steward Observatory, Kitt Peak-Spacewatch MPS 272448
2009 02 04.19725 08 58 47.40 +21 08 02.0   691 – Steward Observatory, Kitt Peak-Spacewatch MPS 272448
2009 02 04.21539 08 58 46.42 +21 08 06.5   691 – Steward Observatory, Kitt Peak-Spacewatch MPS 272448
2010 04 17.44240 15 15 28.00 -14 58 30.8   691 – Steward Observatory, Kitt Peak-Spacewatch MPS 323425
2010 04 17.44997 15 15 27.70 -14 58 30.3   691 – Steward Observatory, Kitt Peak-Spacewatch MPS 323425
2010 04 17.45755 15 15 27.33 -14 58 29.1   691 – Steward Observatory, Kitt Peak-Spacewatch MPS 323425
2010 04 20.38771 15 13 25.25 -14 51 25.7 20.7 V 691 – Steward Observatory, Kitt Peak-Spacewatch MPS 323425
2010 04 20.40539 15 13 24.41 -14 51 23.1 21.0 V 691 – Steward Observatory, Kitt Peak-Spacewatch MPS 323425
2010 04 20.42050 15 13 23.76 -14 51 20.3 21.0 V 691 – Steward Observatory, Kitt Peak-Spacewatch MPS 323425
2010 04 20.519776 15 13 19.510 -14 51 05.44 20.52 r F51 – Pan-STARRS 1, Haleakala MPS 338905
2010 04 20.527892 15 13 19.158 -14 51 04.14 20.84 r F51 – Pan-STARRS 1, Haleakala MPS 338905
2010 05 09.30552 14 57 59.83 -14 00 17.6 20.1 V G96 – Mt. Lemmon Survey MPS 326326
2010 05 09.31383 14 57 59.40 -14 00 15.9 20.1 V G96 – Mt. Lemmon Survey MPS 326326
2010 05 09.32216 14 57 58.93 -14 00 15.0 20.3 V G96 – Mt. Lemmon Survey MPS 326326
2010 05 09.33053 14 57 58.46 -14 00 13.6 20.0 V G96 – Mt. Lemmon Survey MPS 326326
2011 08 04.43001 21 54 20.896 -17 15 07.44 20.4 r F51 – Pan-STARRS 1, Haleakala MPS 388353
2011 08 04.44022 21 54 20.424 -17 15 10.51 20.7 r F51 – Pan-STARRS 1, Haleakala MPS 388354
2011 08 04.45231 21 54 19.840 -17 15 14.00 21.1 g F51 – Pan-STARRS 1, Haleakala MPS 388354
2012 11 17.23953 03 32 55.53 +16 58 02.2 20.1 V G96 – Mt. Lemmon Survey MPS 444719
2012 11 17.24628 03 32 55.17 +16 58 01.3 20.2 V G96 – Mt. Lemmon Survey MPS 444719
2012 11 17.25312 03 32 54.78 +16 58 00.5 20.3 V G96 – Mt. Lemmon Survey MPS 444719
2012 11 17.25990 03 32 54.42 +16 57 59.5 20.3 V G96 – Mt. Lemmon Survey MPS 444719
2012 11 20.22601 03 30 12.24 +16 51 21.6 20.5 V G96 – Mt. Lemmon Survey MPS 444719
2012 11 20.23484 03 30 11.77 +16 51 20.3 20.4 V G96 – Mt. Lemmon Survey MPS 444719
2012 11 20.24365 03 30 11.26 +16 51 19.0 20.3 V G96 – Mt. Lemmon Survey MPS 444719
2012 11 20.25256 03 30 10.76 +16 51 17.9 20.1 V G96 – Mt. Lemmon Survey MPS 444719
2012 12 04.12156 03 18 22.50 +16 23 25.6 20.3 V G96 – Mt. Lemmon Survey MPS 445811
2012 12 04.12910 03 18 22.10 +16 23 24.3 20.7 V G96 – Mt. Lemmon Survey MPS 445811
2012 12 04.13669 03 18 21.74 +16 23 23.5 20.8 V G96 – Mt. Lemmon Survey MPS 445811
2012 12 04.14428 03 18 21.38 +16 23 23.2 20.6 V G96 – Mt. Lemmon Survey MPS 445811
2014 02 18.41628 09 57 40.43 +17 12 20.3 19.4 V G96 – Mt. Lemmon Survey MPS 502208
2014 02 18.42104 09 57 40.25 +17 12 21.4 19.5 V G96 – Mt. Lemmon Survey MPS 502208
2014 02 18.42580 09 57 39.93 +17 12 22.6 19.8 V G96 – Mt. Lemmon Survey MPS 502208
2014 02 18.43062 09 57 39.71 +17 12 23.6 20.1 V G96 – Mt. Lemmon Survey MPS 502208
2014 02 25.28278 09 51 52.24 +17 43 40.0 21.2 V 703 – Catalina Sky Survey MPS 503707
2014 02 25.28627 09 51 52.10 +17 43 41.2 21.1 V 703 – Catalina Sky Survey MPS 503707
2014 02 25.28977 09 51 51.88 +17 43 40.4 20.6 V 703 – Catalina Sky Survey MPS 503707
2014 02 25.29327 09 51 51.74 +17 43 42.0 20.9 V 703 – Catalina Sky Survey MPS 503707
2014 03 22.22637 09 35 52.41 +18 51 18.5 20.9 V G96 – Mt. Lemmon Survey MPS 508253
2014 03 22.23364 09 35 52.21 +18 51 19.1 20.6 V G96 – Mt. Lemmon Survey MPS 508253
2014 03 22.24091 09 35 52.05 +18 51 18.8 20.1 V G96 – Mt. Lemmon Survey MPS 508253
2014 03 22.24818 09 35 51.83 +18 51 20.2 21.2 V G96 – Mt. Lemmon Survey MPS 508253
2015 05 24.24844 15 53 59.11 -18 34 11.1 20.4 V W84 – Cerro Tololo-DECam MPS 788965
2015 05 24.25170 15 53 58.93 -18 34 10.7   W84 – Cerro Tololo-DECam MPS 788965
2015 05 24.25494 15 53 58.75 -18 34 10.4   W84 – Cerro Tololo-DECam MPS 788965
2015 05 24.25815 15 53 58.58 -18 34 10.1   W84 – Cerro Tololo-DECam MPS 788965
2015 05 24.26140 15 53 58.40 -18 34 09.8   W84 – Cerro Tololo-DECam MPS 788965
2015 05 24.42625 15 53 49.746 -18 33 57.87 20.2 w F51 – Pan-STARRS 1, Haleakala MPS 609596
2015 05 24.43774 15 53 49.114 -18 33 56.74 20.2 w F51 – Pan-STARRS 1, Haleakala MPS 609596
2015 05 25.37900 15 52 59.146 -18 32 25.06 20.1 i F51 – Pan-STARRS 1, Haleakala MPS 609596
2015 05 25.39028 15 52 58.529 -18 32 24.06 20.0 i F51 – Pan-STARRS 1, Haleakala MPS 609596
2015 05 25.40163 15 52 57.901 -18 32 23.06 20.0 i F51 – Pan-STARRS 1, Haleakala MPS 609596
2015 05 25.41293 15 52 57.277 -18 32 21.81 20.0 i F51 – Pan-STARRS 1, Haleakala MPS 609596
2015 05 27.19249 15 51 23.07 -18 29 25.8 20.4 V W84 – Cerro Tololo-DECam MPS 615772
2015 05 27.21411 15 51 21.86 -18 29 23.6   W84 – Cerro Tololo-DECam MPS 615772
2015 05 27.23576 15 51 20.51 -18 29 20.7   W84 – Cerro Tololo-DECam MPS 615772
